Location: ??????
(38.0131°N, 23.7723°E)
Time: 01:54:38
(UTC+00:00)

Cosmos 2082 - Pass Details

Date: 17 October 2021
Orbit: 835 x 853 km, 71.0° (Epoch: 04 December)

Event Time Altitude Azimuth Distance (km) Brightness Sun altitude
Rises 16:13:23 0° 343° (NNW) 3,391 7.0 -6.5°
Reaches altitude 10° 16:15:57 10° 350° (N) 2,452 6.2 -7.0°
Maximum altitude 16:21:20 46° 63° (ENE) 1,117 4.0 -8.0°
Drops below altitude 10° 16:26:41 10° 136° (SE) 2,441 5.7 -9.1°
Sets 16:29:13 0° 142° (SE) 3,373 6.5 -9.6°
